Aérodrome :
LOGIN :

S'inscrire | Disclaimer

   EN    FR    IT 

 










Légende :    VFR   VFR Marginal   IFR   IFR Intensif   IFR Très Intensif
Visi : 
Plafond : 
>= 8 km
>= 3000ft
5 à 8 km
1000 à 3000 ft
1500m à 5 km
500 à 1000 ft
800 à 1500m
200 à 500 ft
< 800m
< 200 ft
Symboles :   Orages  Brouillard  Fortes neiges  Fortes précipitations  Vent > 20 kt
SIGMETs :   Divers  Orages  Givrage  Turbulence  Onde Orograph.  Cendres Volcan.







- Altitude de l'aérodrome : 157 ft
- Code IATA : SXF


EDDB - Berlin Schönefeld

DERNIER METAR :
  • 210920Z 05006KT 360V080 CAVOK 24/10 Q1013 NOSIG

METARs EXPIRÉS :
  • 210850Z 08007KT 010V140 CAVOK 24/11 Q1013 NOSIG
  • 210820Z 08006KT 020V140 CAVOK 23/09 Q1013 NOSIG
  • 210750Z 10006KT 060V130 CAVOK 23/11 Q1013 NOSIG
  • 210720Z 08006KT 050V130 CAVOK 22/10 Q1013 NOSIG
  • 210650Z 07008KT 050V110 CAVOK 21/11 Q1013 NOSIG

TAF TAF EDDB
Valide du 21 à 06h jusqu'au 22 à 06h UTC


210500Z 2106/2206 06006KT CAVOK
Pas de NOTAMs connus pour ce terrain.



MET'MAP, la Météo Aéronautique d'un coup d'oeil ! - Copyright ORBIFLY Décembre 2007 - Disclaimer

ORBIFLY MET'MAP TEAM :

Programmation & Développement : Alexandra Zaïnal
Conception & Développement : Baudouin d'Aumeries
Co-Programmation & Développement : Marc-Olivier Méhu
Soutien technique & logistique : Manuel Goepfert

Contact : metmap@orbifly.com




SOURCES & CREDITS :

   NOAA